Terminal Aerodrome Forecast
Issued by NWS

Current Version | Previous Version | Graphics & Text | Print | Product List | Glossary On
Versions: 1 2 3 4 5 6 7 8 9 10 11 12 13 14 15 16 17 18 19 20 21 22 23 24 25 26 27 28 29 30 31 32 33 34 35 36 37 38 39 40 41 42 43 44 45 46
000
FTUS41 KRNK 162339
TAFLWB
TAF
KLWB 162339Z 1700/1724 34003KT P6SM SCT020
     FM170400 00000KT 4SM BR SCT003 BKN015
      TEMPO 1707/1709 1SM -DZ BR OVC003
     FM171600 14003KT P6SM SCT007 OVC025
     FM171800 23003KT P6SM SCT040=

USA.gov is the U.S. government's official web portal to all federal, state and local government web resources and services.